Location: Lane
(33.5226°N, 79.8788°W)
Time: 22:21:54
(UTC+00:00)

Tiros 1 - Pass Details

Date: 12 October 2022
Orbit: 629 x 662 km, 48.4° (Epoch: 08 December)

Event Time Altitude Azimuth Distance (km) Brightness Sun altitude
Rises 01:39:30 0° 260° (W) 2,975 11.4 -35.7°
Reaches altitude 10° 01:42:05 10° 271° (W) 2,068 10.4 -36.2°
Enters shadow 01:43:56 20° 287° (WNW) 1,516 9.6 -36.6°
